Home   Weather   Swansea   Past weeks

Flag for United Kingdom Past Weather in Swansea, Wales, United Kingdom — Yesterday and Last 2 Weeks

Now
48 °F

Cool.


Feels Like: 45 °F
Forecast: 41 / 53 °F
Wind: 7 mph from West

Location: Mumbles

Current Time: Apr 27, 2017 at 10:02:27 pm

Latest Report: Apr 27, 2017 at 9:00 pm


Visibility: N/A

Pressure: 30.13 "Hg

Humidity: 82%

Dew Point: 43 °F

Location of SwanseaLocation

Past Weather in Swansea — Graph

°F

Swansea Temperature Yesterday

Maximum temperature yesterday: 49 °F (at 12:00 pm)
Minimum temperature yesterday: 36 °F (at 6:00 am)
Average temperature yesterday: 44 °F

High & Low Weather Summary for the Past Weeks

 TemperatureHumidityPressure
High62 °F (Apr 22, 4:00 pm)99% (Apr 14, 10:00 pm)30.65 "Hg (Apr 14, 10:00 pm)
Low36 °F (Apr 27, 5:00 am)41% (Apr 25, 3:00 pm)29.98 "Hg (Apr 25, 5:00 am)
Average49 °F72%30.28 "Hg
* Reported Apr 12 7:00 pm — Apr 27 7:00 pm, Swansea, Weather by CustomWeather, © 2017

Note: Actual official high and low records may vary slightly from our data, if they occured in-between our weather recording intervals... More about our weather records

Advertising

Swansea Weather History for the Previous 24 Hours

Scroll right to see more
 ConditionsComfort  
Time TempWeatherWind HumidityBarometerVisibility
7:00 pm
Thu, Apr 27
50 °FCool.10 mph72%30.14 "HgN/A
6:00 pm50 °FCool.14 mph68%30.13 "HgN/A
5:00 pm51 °FCool.12 mph67%30.14 "HgN/A
4:00 pm51 °FCool.14 mph64%30.14 "HgN/A
3:00 pm51 °FCool.9 mph64%30.16 "HgN/A
2:00 pm50 °FCool.10 mph67%30.17 "HgN/A
12:50 pm48 °FCool.8 mph70%30.18 "HgN/A
12:00 pm47 °FCool.9 mph71%30.19 "HgN/A
11:00 am48 °FCool.9 mph71%30.20 "HgN/A
10:00 am46 °FCool.10 mph64%30.20 "HgN/A
9:00 am45 °FQuite cool.5 mph58%30.21 "HgN/A
8:00 am43 °FQuite cool.1 mph63%30.21 "HgN/A
7:00 am39 °FChilly.1 mph70%30.21 "HgN/A
6:00 am36 °FChilly.8 mph72%30.20 "HgN/A
5:00 am36 °FChilly.7 mph68%30.21 "HgN/A
4:00 am38 °FChilly.8 mph63%30.21 "HgN/A
3:00 am38 °FChilly.9 mph62%30.21 "HgN/A
2:00 am40 °FChilly.9 mph60%30.21 "HgN/A
12:50 am41 °FQuite cool.8 mph57%30.21 "HgN/A
12:00 am42 °FQuite cool.9 mph59%30.20 "HgN/A
11:00 pm
Wed, Apr 26
43 °FQuite cool.9 mph56%30.20 "HgN/A
10:00 pm43 °FQuite cool.9 mph60%30.19 "HgN/A
Weather by CustomWeather, © 2017

See weather overviewHow to use our weather pages